Regional Weather Roundup
Issued by NWS Cleveland, OH

Home | Current Version | Previous Version | Text Only | Print | Product List | Glossary Off
Versions: 1 2 3 4 5 6 7 8 9 10 11 12 13 14 15 16 17 18 19 20 21 22 23 24 25 26 27 28 29 30 31 32 33 34 35 36 37 38 39 40 41 42 43 44 45 46 47 48 49 50

000
ASUS41 KCLE 240012
RWRCLE
OHIO REGIONAL WEATHER ROUNDUP
NATIONAL WEATHER SERVICE WILMINGTON, OH
800 PM EDT SAT JUL 23 2016

NOTE: "FAIR" INDICATES FEW OR NO CLOUDS BELOW 12,000 FEET WITH NO
SIGNIFICANT WEATHER AND/OR OBSTRUCTIONS TO VISIBILITY.

OHZ001>008-015>018-024>027-034-035-043-044-240100-
   NORTHWEST OHIO

CITY           SKY/WX    TMP DP  RH WIND       PRES   REMARKS
DEFIANCE       FAIR      88  70  55 CALM      29.95R HX  93
FINDLAY        FAIR      89  67  47 W3        29.94S HX  92
TOLEDO EXPRESS FAIR      89  67  47 N3        29.94S HX  92
TOLEDO EXEC    FAIR      90  67  46 SE5       29.94F HX  93
LIMA           FAIR      87  75  67 E3        29.96S HX  96
$$

OHZ009>014-019>023-028>033-038-089-240100-
   NORTHEAST OHIO

CITY           SKY/WX    TMP DP  RH WIND       PRES   REMARKS
CLE-HOPKINS    MOCLDY    87  65  47 N6        29.98S
CLE-LAKEFRONT  FAIR      82  73  74 NE6       29.95S
CUY CO. ARPT   PTCLDY    86  63  45 NE5       29.97F
LORAIN-ELYRIA  FAIR      85  67  54 NE7       29.96S
ASHTABULA      FAIR      80  63  55 CALM      29.99R
AKRON-CANTON   MOCLDY    85  62  46 N6        29.97R
WOOSTER        FAIR      86  67  52 N8        29.98S
MANSFIELD      FAIR      87  71  58 N5        29.98S HX  93
YOUNGSTOWN     MOCLDY    83  62  49 NE8       29.99R
$$

OHZ042-051>053-060>062-070>072-077>081-240100-
  SOUTHWEST OHIO

CITY           SKY/WX    TMP DP  RH WIND       PRES   REMARKS
CINC-COVINGTON FAIR      89  73  59 W6        29.96S HX  97
CINC-LUNKEN    FAIR      89  72  56 VRB3      29.94R HX  96
HAMILTON       FAIR      90  71  53 W5        29.96R HX  96
DAYTON         FAIR      85  72  65 W6        29.98R HX  91
WRIGHT-PAT AFB MOCLDY    88  72  58 N2        29.96R HX  94
DAYTON GENERAL FAIR      88  70  55 NW6       29.97R HX  93
WILMINGTON     MOCLDY    85  76  74 CALM      29.97R HX  94
$$

OHZ036-037-039>041-045>050-054>059-063>069-073>076-082>088-240100-
  CENTRAL AND SOUTHEAST OHIO

CITY           SKY/WX    TMP DP  RH WIND       PRES   REMARKS
COLUMBUS       MOCLDY    88  69  53 W6        29.95S HX  92
OSU AIRPORT    FAIR      87  71  58 NW3       29.97R HX  93
BOLTON FIELD   FAIR      88  73  60 CALM      29.98R HX  95
RICKENBACK AFB FAIR      87  74  65 SW3       29.96R HX  95
NEWARK         FAIR      88  73  61 CALM      29.96R HX  95
MARION         FAIR      88  69  53 W3        29.97R HX  92
LANCASTER      FAIR      85  75  72 SW3       29.97R HX  93
ZANESVILLE     FAIR      88  71  57 W3        29.96S HX  94
NEW PHILLY     FAIR      86  75  69 CALM      29.96S HX  95
$$




USA.gov is the U.S. government's official web portal to all federal, state and local government web resources and services.